リニア彗星

225P/LINEAR (2002)

English version
Home page
Updated on September 13, 2009

---------------------------------------------------------------------

・ プロフィール

符号 225P/2002 T1
発見日 2002年10月3日
発見光度 16.2等
発見者 Lincoln Laboratory Near-Earth Asteroid Research project

・ 軌道要素

Epoch 2002 Oct. 13.0 TT = JDT 2452560.5
T 2002 Oct. 8.08524 TT                                  MPC
q   1.1919828            (2000.0)            P               Q
n   0.14766341     Peri.    1.31153     +0.95763766     -0.27201905
a   3.5450371      Node    15.50376     +0.26088857     +0.68050405
e   0.6637601      Incl.   20.71024     +0.12193141     +0.68038215
P   6.67

・ 星図

・ 光度変化

        m1 = 18.5 + 5 logΔ + 10.0 log r

---------------------------------------------------------------------

軌道要素はM.P.E.C. 2009-Q69に掲載されたものです。
星図は StellaNavigator Ver.2.0 for Windows (アストロアーツ編著 / アスキー出版局刊) で作成したものです。
光度グラフはComet for Windowsで作成したものです。

---------------------------------------------------------------------

Copyright(C) Seiichi Yoshida (comet@aerith.net). All rights reserved.